Location: Nitta Yuma
(33.0242°N, 90.8483°W)
Time: 07:18:50
(UTC+00:00)

X-37B - Visible Passes

Search period start: 23 April 2021 00:00
Search period end: 03 May 2021 00:00
Orbit: 380 x 394 km, 45.0° (Epoch: 07 April)

Date Brightness Start Highest point End Pass type
(mag) Time Alt. Az. Time Alt. Az. Time Alt. Az.
24 Apr 3.6 10:01:01 10° NNW 10:02:42 13° NNE 10:04:22 10° NE visible
25 Apr 3.8 09:03:23 10° N 09:04:00 11° N 09:04:54 10° NNE visible
25 Apr 2.6 10:38:33 10° NW 10:41:23 29° NNE 10:44:12 10° E visible
26 Apr 3.3 09:40:29 10° NNW 09:42:51 19° NNE 09:45:11 10° ENE visible
27 Apr 3.9 08:44:42 13° NNE 08:44:42 13° NNE 08:45:55 10° NE visible
27 Apr 1.3 10:18:13 10° NW 10:21:22 54° NNE 10:24:28 10° ESE visible
28 Apr 2.5 09:21:57 24° N 09:22:54 29° NNE 09:25:45 10° E visible
29 Apr 0.4 09:59:40 26° WNW 10:01:14 68° SW 10:04:23 10° SE visible
30 Apr 3.2 02:30:34 10° SW 02:30:57 13° SW 02:30:57 13° SW visible
30 Apr 3.4 09:05:30 14° ESE 09:05:30 14° ESE 09:06:00 10° ESE visible
30 Apr 2.5 10:37:54 12° WSW 10:39:13 14° SW 10:40:59 10° S visible
01 May 1.7 01:32:45 10° SSW 01:35:27 25° SE 01:37:18 15° E visible
01 May 3.6 03:09:03 10° W 03:09:43 15° W 03:09:43 15° W visible
02 May 0.9 02:10:23 10° WSW 02:13:34 65° NNW 02:15:37 20° NE visible
